loading
|
Showing default

GGSE 1 (GGRS), 728

Orbit data source: Space-Track

GGSE 1 (GGRS), 728 is an American payload satellite in LEO that was launched on Sat, 11 Jan 1964 UTC via a THOR SLV-2A AGENA D launch vehicle from the Air Force Western Test Range (AFWTR). Payloads include a variety of satellites, spacecraft, and rockets equipped with specific instruments for various scientific and technological missions. These include communications satellites like Starlink; space stations such as the ISS; scientific satellites like the Hubble; Earth observation satellites from companies like Planet Labs, Umbra, and HawkEye 360; GPS; miniature CubeSats for education and research; and military/defense satellites.

Loading next visibility...
Loading greatness...
GGSE 1 (GGRS) details
Identifier
728, 1964-001B
Orbit
LEO
Last TLE update13 hours ago
Origin
Flag of USNRO/NRL (US)
ManufacturerNRL
Mission statusUnknown
MissionDefense Technology
Bus & MotorNRL 20", Unknown motor
Mass38 kg wet, 38 kg dry
Launch date (UTC)
1964-01-11 (61 years ago)
Launch vehicle
THOR SLV-2A AGENA D
Launch site
Air Force Western Test Range (AFWTR)
Object type
Payload
Rocket body
Debris
Radar Cross Section0.38 m², Medium (>0.1 m² and < 1m²)

Expand to show TLE details & history

TLE from 13 hours ago
0 GGSE 1 (GGRS)
1   728U 64001B   24251.15165393  .00000399  00000-0  32125-3 0  9992
2   728  69.9081 158.9835 0010659 103.5142 256.7152 13.97521689 89598
Epoch: 2024-09-07T03:38Z
Definitive object data (Epoch: 2024-09-07T03:38:22.899Z)
Latitude-0.00003°
Longitude117.67413°
Altitude906.489 km
Speed7.398 km/s
True Right ascension10h 35m 56s
True Declination0° 00' 00"
Sunlit
Object was in daylight at TLE epoch
Predictive object data (real-time)
Latitude-69.30971°
Longitude10.94847°
Altitude935.119 km
Speed7.38 km/s
Apparent Right ascension23h 00m 40s
Apparent Declination-64° 06' 19"
Sunlit
Object is in daylight
Predictive observer data (real-time)
Local Sidereal Time09:04:03
Azimuth205.538° SW
Elevation-60.432°
Doppler factor1
Orbital elements
Apogee908.199 km
Perigee892.683 km
Semi-major axis7,278.578 km
Eccentricity0.0010659
Inclination69.9081°
RAAN158.9835°
Arg. of periapsis103.5142°
True anomaly256.59636°
Mean anomaly256.7152°
Eccentric anomaly256.65578°
Mean motion3.49521 °/min
BSTAR0.00032125
Period103 mins
No data available
Other satellites on launch #1 in the year 1964 (1964-01-11 UTC)

GGSE 1 (GGRS) Visibility forecast

Observer location: 39.9160978°, -105.1181434

GGSE 1 (GGRS) is not visible in the next 10 days
Span
Click to sort rows by Start time (UTC) header in descending order
Start Az.
Max El. time (UTC)
Max El. Az.
Max El.
End time (UTC)
End Az.